﻿測定場所 (Monitoring sites),日付 (Measurement date),時間 (Measurement time),線量率 最大値 (max) μGy/h,線量率 最小値 (min) μGy/h,線量率 平均値 (average) μGy/h,
大田 (Ota),2016-10-30,23:01～24:00,0.0401,0.0341,0.0368,
大田 (Ota),2016-10-30,22:01～23:00,0.0390,0.0349,0.0366,
大田 (Ota),2016-10-30,21:01～22:00,0.0383,0.0341,0.0364,
大田 (Ota),2016-10-30,20:01～21:00,0.0395,0.0348,0.0365,
大田 (Ota),2016-10-30,19:01～20:00,0.0390,0.0348,0.0364,
大田 (Ota),2016-10-30,18:01～19:00,0.0378,0.0354,0.0364,
大田 (Ota),2016-10-30,17:01～18:00,0.0391,0.0349,0.0364,
大田 (Ota),2016-10-30,16:01～17:00,0.0399,0.0349,0.0366,
大田 (Ota),2016-10-30,15:01～16:00,0.0396,0.0350,0.0370,
大田 (Ota),2016-10-30,14:01～15:00,0.0386,0.0349,0.0365,
大田 (Ota),2016-10-30,13:01～14:00,0.0386,0.0347,0.0366,
大田 (Ota),2016-10-30,12:01～13:00,0.0400,0.0351,0.0368,
大田 (Ota),2016-10-30,11:01～12:00,0.0405,0.0349,0.0370,
大田 (Ota),2016-10-30,10:01～11:00,0.0422,0.0363,0.0383,
大田 (Ota),2016-10-30,09:01～10:00,0.0429,0.0359,0.0396,
大田 (Ota),2016-10-30,08:01～09:00,0.0403,0.0357,0.0377,
大田 (Ota),2016-10-30,07:01～08:00,0.0411,0.0352,0.0378,
大田 (Ota),2016-10-30,06:01～07:00,0.0400,0.0348,0.0374,
大田 (Ota),2016-10-30,05:01～06:00,0.0422,0.0349,0.0377,
大田 (Ota),2016-10-30,04:01～05:00,0.0416,0.0360,0.0378,
大田 (Ota),2016-10-30,03:01～04:00,0.0441,0.0363,0.0400,
大田 (Ota),2016-10-30,02:01～03:00,0.0528,0.0410,0.0462,
大田 (Ota),2016-10-30,01:01～02:00,0.0547,0.0387,0.0461,
大田 (Ota),2016-10-30,00:01～01:00,0.0442,0.0355,0.0392,
大田 (Ota),2016-10-29,23:01～24:00,0.0403,0.0352,0.0373,
大田 (Ota),2016-10-29,22:01～23:00,0.0403,0.0350,0.0370,
大田 (Ota),2016-10-29,21:01～22:00,0.0407,0.0350,0.0375,
大田 (Ota),2016-10-29,20:01～21:00,0.0436,0.0365,0.0388,
大田 (Ota),2016-10-29,19:01～20:00,0.0459,0.0371,0.0398,
大田 (Ota),2016-10-29,18:01～19:00,0.0482,0.0372,0.0424,
大田 (Ota),2016-10-29,17:01～18:00,0.0503,0.0362,0.0442,
大田 (Ota),2016-10-29,16:01～17:00,0.0411,0.0338,0.0367,
大田 (Ota),2016-10-29,15:01～16:00,0.0389,0.0347,0.0366,
大田 (Ota),2016-10-29,14:01～15:00,0.0411,0.0349,0.0368,
大田 (Ota),2016-10-29,13:01～14:00,0.0395,0.0346,0.0367,
大田 (Ota),2016-10-29,12:01～13:00,0.0420,0.0344,0.0368,
大田 (Ota),2016-10-29,11:01～12:00,0.0396,0.0352,0.0368,
大田 (Ota),2016-10-29,10:01～11:00,0.0407,0.0341,0.0370,
大田 (Ota),2016-10-29,09:01～10:00,0.0390,0.0352,0.0368,
大田 (Ota),2016-10-29,08:01～09:00,0.0392,0.0348,0.0366,
大田 (Ota),2016-10-29,07:01～08:00,0.0403,0.0343,0.0369,
大田 (Ota),2016-10-29,06:01～07:00,0.0395,0.0353,0.0371,
大田 (Ota),2016-10-29,05:01～06:00,0.0398,0.0351,0.0371,
大田 (Ota),2016-10-29,04:01～05:00,0.0391,0.0351,0.0370,
大田 (Ota),2016-10-29,03:01～04:00,0.0397,0.0353,0.0369,
大田 (Ota),2016-10-29,02:01～03:00,0.0400,0.0347,0.0367,
大田 (Ota),2016-10-29,01:01～02:00,0.0417,0.0353,0.0379,
大田 (Ota),2016-10-29,00:01～01:00,0.0457,0.0372,0.0415,
大田 (Ota),2016-10-28,23:01～24:00,0.0552,0.0426,0.0487,
大田 (Ota),2016-10-28,22:01～23:00,0.0626,0.0521,0.0571,
大田 (Ota),2016-10-28,21:01～22:00,0.0644,0.0554,0.0594,
大田 (Ota),2016-10-28,20:01～21:00,0.0598,0.0489,0.0540,
大田 (Ota),2016-10-28,19:01～20:00,0.0540,0.0470,0.0507,
大田 (Ota),2016-10-28,18:01～19:00,0.0543,0.0450,0.0502,
大田 (Ota),2016-10-28,17:01～18:00,0.0542,0.0471,0.0507,
大田 (Ota),2016-10-28,16:01～17:00,0.0596,0.0480,0.0527,
大田 (Ota),2016-10-28,15:01～16:00,0.0523,0.0427,0.0474,
大田 (Ota),2016-10-28,14:01～15:00,0.0585,0.0469,0.0532,
大田 (Ota),2016-10-28,13:01～14:00,0.0572,0.0452,0.0529,
大田 (Ota),2016-10-28,12:01～13:00,0.0483,0.0362,0.0416,
大田 (Ota),2016-10-28,11:01～12:00,0.0416,0.0356,0.0380,
大田 (Ota),2016-10-28,10:01～11:00,0.0412,0.0353,0.0378,
大田 (Ota),2016-10-28,09:01～10:00,0.0411,0.0357,0.0378,
大田 (Ota),2016-10-28,08:01～09:00,0.0407,0.0353,0.0377,
大田 (Ota),2016-10-28,07:01～08:00,0.0413,0.0350,0.0376,
大田 (Ota),2016-10-28,06:01～07:00,0.0409,0.0347,0.0375,
大田 (Ota),2016-10-28,05:01～06:00,0.0404,0.0354,0.0378,
大田 (Ota),2016-10-28,04:01～05:00,0.0407,0.0355,0.0375,
大田 (Ota),2016-10-28,03:01～04:00,0.0414,0.0354,0.0374,
大田 (Ota),2016-10-28,02:01～03:00,0.0416,0.0359,0.0377,
大田 (Ota),2016-10-28,01:01～02:00,0.0401,0.0344,0.0371,
大田 (Ota),2016-10-28,00:01～01:00,0.0435,0.0352,0.0371,
大田 (Ota),2016-10-27,23:01～24:00,0.0413,0.0353,0.0375,
大田 (Ota),2016-10-27,22:01～23:00,0.0407,0.0348,0.0374,
大田 (Ota),2016-10-27,21:01～22:00,0.0415,0.0352,0.0373,
大田 (Ota),2016-10-27,20:01～21:00,0.0409,0.0356,0.0374,
大田 (Ota),2016-10-27,19:01～20:00,0.0405,0.0358,0.0375,
大田 (Ota),2016-10-27,18:01～19:00,0.0404,0.0357,0.0374,
大田 (Ota),2016-10-27,17:01～18:00,0.0407,0.0354,0.0374,
大田 (Ota),2016-10-27,16:01～17:00,0.0400,0.0354,0.0373,
大田 (Ota),2016-10-27,15:01～16:00,0.0426,0.0355,0.0374,
大田 (Ota),2016-10-27,14:01～15:00,0.0416,0.0353,0.0379,
大田 (Ota),2016-10-27,13:01～14:00,0.0422,0.0354,0.0374,
大田 (Ota),2016-10-27,12:01～13:00,0.0406,0.0354,0.0374,
大田 (Ota),2016-10-27,11:01～12:00,0.0411,0.0358,0.0377,
大田 (Ota),2016-10-27,10:01～11:00,0.0401,0.0359,0.0376,
大田 (Ota),2016-10-27,09:01～10:00,0.0405,0.0354,0.0373,
大田 (Ota),2016-10-27,08:01～09:00,0.0401,0.0353,0.0375,
大田 (Ota),2016-10-27,07:01～08:00,0.0399,0.0350,0.0368,
大田 (Ota),2016-10-27,06:01～07:00,0.0405,0.0352,0.0369,
大田 (Ota),2016-10-27,05:01～06:00,0.0387,0.0353,0.0368,
大田 (Ota),2016-10-27,04:01～05:00,0.0400,0.0354,0.0370,
大田 (Ota),2016-10-27,03:01～04:00,0.0397,0.0352,0.0370,
大田 (Ota),2016-10-27,02:01～03:00,0.0416,0.0358,0.0379,
大田 (Ota),2016-10-27,01:01～02:00,0.0415,0.0359,0.0376,
大田 (Ota),2016-10-27,00:01～01:00,0.0394,0.0346,0.0371,
大田 (Ota),2016-10-26,23:01～24:00,0.0429,0.0354,0.0377,
大田 (Ota),2016-10-26,22:01～23:00,0.0410,0.0353,0.0375,
大田 (Ota),2016-10-26,21:01～22:00,0.0410,0.0351,0.0372,
大田 (Ota),2016-10-26,20:01～21:00,0.0403,0.0355,0.0370,
大田 (Ota),2016-10-26,19:01～20:00,0.0396,0.0349,0.0369,
大田 (Ota),2016-10-26,18:01～19:00,0.0402,0.0350,0.0373,
大田 (Ota),2016-10-26,17:01～18:00,0.0411,0.0353,0.0370,
大田 (Ota),2016-10-26,16:01～17:00,0.0399,0.0348,0.0370,
大田 (Ota),2016-10-26,15:01～16:00,0.0393,0.0351,0.0369,
大田 (Ota),2016-10-26,14:01～15:00,0.0402,0.0353,0.0369,
大田 (Ota),2016-10-26,13:01～14:00,0.0391,0.0350,0.0369,
大田 (Ota),2016-10-26,12:01～13:00,0.0423,0.0353,0.0373,
大田 (Ota),2016-10-26,11:01～12:00,0.0404,0.0358,0.0374,
大田 (Ota),2016-10-26,10:01～11:00,0.0400,0.0354,0.0374,
大田 (Ota),2016-10-26,09:01～10:00,0.0403,0.0350,0.0371,
大田 (Ota),2016-10-26,08:01～09:00,0.0405,0.0352,0.0373,
大田 (Ota),2016-10-26,07:01～08:00,0.0407,0.0357,0.0375,
大田 (Ota),2016-10-26,06:01～07:00,0.0397,0.0349,0.0369,
大田 (Ota),2016-10-26,05:01～06:00,0.0402,0.0355,0.0370,
大田 (Ota),2016-10-26,04:01～05:00,0.0403,0.0354,0.0373,
大田 (Ota),2016-10-26,03:01～04:00,0.0417,0.0350,0.0371,
大田 (Ota),2016-10-26,02:01～03:00,0.0420,0.0349,0.0372,
大田 (Ota),2016-10-26,01:01～02:00,0.0395,0.0342,0.0367,
大田 (Ota),2016-10-26,00:01～01:00,0.0394,0.0346,0.0367,
大田 (Ota),2016-10-25,23:01～24:00,0.0402,0.0350,0.0370,
大田 (Ota),2016-10-25,22:01～23:00,0.0393,0.0353,0.0370,
大田 (Ota),2016-10-25,21:01～22:00,0.0403,0.0350,0.0374,
大田 (Ota),2016-10-25,20:01～21:00,0.0409,0.0351,0.0380,
大田 (Ota),2016-10-25,19:01～20:00,0.0444,0.0368,0.0411,
大田 (Ota),2016-10-25,18:01～19:00,0.0482,0.0405,0.0448,
大田 (Ota),2016-10-25,17:01～18:00,0.0462,0.0390,0.0420,
大田 (Ota),2016-10-25,16:01～17:00,0.0445,0.0356,0.0391,
大田 (Ota),2016-10-25,15:01～16:00,0.0407,0.0348,0.0374,
大田 (Ota),2016-10-25,14:01～15:00,0.0394,0.0355,0.0372,
大田 (Ota),2016-10-25,13:01～14:00,0.0411,0.0356,0.0375,
大田 (Ota),2016-10-25,12:01～13:00,0.0419,0.0360,0.0378,
大田 (Ota),2016-10-25,11:01～12:00,0.0405,0.0354,0.0375,
大田 (Ota),2016-10-25,10:01～11:00,0.0405,0.0360,0.0376,
大田 (Ota),2016-10-25,09:01～10:00,0.0414,0.0358,0.0378,
大田 (Ota),2016-10-25,08:01～09:00,0.0423,0.0356,0.0383,
大田 (Ota),2016-10-25,07:01～08:00,0.0409,0.0357,0.0376,
大田 (Ota),2016-10-25,06:01～07:00,0.0400,0.0351,0.0374,
大田 (Ota),2016-10-25,05:01～06:00,0.0424,0.0355,0.0376,
大田 (Ota),2016-10-25,04:01～05:00,0.0402,0.0347,0.0372,
大田 (Ota),2016-10-25,03:01～04:00,0.0412,0.0353,0.0375,
大田 (Ota),2016-10-25,02:01～03:00,0.0403,0.0349,0.0371,
大田 (Ota),2016-10-25,01:01～02:00,0.0398,0.0352,0.0370,
大田 (Ota),2016-10-25,00:01～01:00,0.0406,0.0354,0.0374,
大田 (Ota),2016-10-24,23:01～24:00,0.0399,0.0347,0.0372,
大田 (Ota),2016-10-24,22:01～23:00,0.0409,0.0352,0.0374,
大田 (Ota),2016-10-24,21:01～22:00,0.0414,0.0350,0.0372,
大田 (Ota),2016-10-24,20:01～21:00,0.0405,0.0345,0.0372,
大田 (Ota),2016-10-24,19:01～20:00,0.0396,0.0350,0.0369,
大田 (Ota),2016-10-24,18:01～19:00,0.0386,0.0350,0.0368,
大田 (Ota),2016-10-24,17:01～18:00,0.0410,0.0346,0.0371,
大田 (Ota),2016-10-24,16:01～17:00,0.0403,0.0348,0.0369,
大田 (Ota),2016-10-24,15:01～16:00,0.0386,0.0346,0.0364,
大田 (Ota),2016-10-24,14:01～15:00,0.0396,0.0348,0.0370,
大田 (Ota),2016-10-24,13:01～14:00,0.0400,0.0346,0.0367,
大田 (Ota),2016-10-24,12:01～13:00,0.0399,0.0357,0.0374,
大田 (Ota),2016-10-24,11:01～12:00,0.0400,0.0350,0.0370,
大田 (Ota),2016-10-24,10:01～11:00,0.0404,0.0352,0.0371,
大田 (Ota),2016-10-24,09:01～10:00,0.0411,0.0352,0.0372,
大田 (Ota),2016-10-24,08:01～09:00,0.0402,0.0356,0.0374,
大田 (Ota),2016-10-24,07:01～08:00,0.0393,0.0353,0.0370,
大田 (Ota),2016-10-24,06:01～07:00,0.0403,0.0354,0.0370,
大田 (Ota),2016-10-24,05:01～06:00,0.0406,0.0353,0.0372,
大田 (Ota),2016-10-24,04:01～05:00,0.0407,0.0344,0.0373,
大田 (Ota),2016-10-24,03:01～04:00,0.0413,0.0354,0.0373,
大田 (Ota),2016-10-24,02:01～03:00,0.0397,0.0344,0.0370,
大田 (Ota),2016-10-24,01:01～02:00,0.0393,0.0345,0.0368,
大田 (Ota),2016-10-24,00:01～01:00,0.0398,0.0353,0.0368,
